Location: Unspecified
(54.1780°N, 0.0000°E)
Time: 13:12:48
(UTC+00:00)

Vanguard 2 - Pass Details

Date: 26 June 2019
Orbit: 553 x 2938 km, 32.9° (Epoch: 17 August)

Event Time Altitude Azimuth Distance (km) Brightness Sun altitude
Rises 09:04:23 0° 223° (SW) 3,225 10.6 44.8°
Reaches altitude 10° 09:08:46 10° 187° (S) 2,708 10.6 45.3°
Maximum altitude 09:10:28 11° 171° (S) 2,801 10.9 45.6°
Drops below altitude 10° 09:12:21 10° 156° (SSE) 3,076 11.3 45.8°
Sets 09:18:48 0° 126° (SE) 4,733 12.3 46.6°
